Location: Hermaringen
(48.5952°N, 10.2585°E)
Time: 02:35:09
(UTC+00:00)

Cosmos 676 Rocket - Pass Details

Date: 18 November 2025
Orbit: 750 x 779 km, 74.0° (Epoch: 04 December)

Event Time Altitude Azimuth Distance (km) Brightness Sun altitude
Rises 17:57:20 0° 201° (SSW) 3,249 7.6 -23.1°
Reaches altitude 10° 17:59:43 10° 202° (SSW) 2,324 6.8 -23.5°
Maximum altitude 18:05:01 89° 290° (WNW) 784 3.9 -24.4°
Enters shadow 18:06:41 46° 21° (NNE) 1,045 4.5 -24.7°
